| time (UTC) | temp F | wind direction | speed MPH | gust MPH | rain 1hr in | rain 24hr in | rain mn in | humidity % | barometer mb |
| 20260503225129 | 95 | 155 | 3.0 | 16.0 | 0.00 | 0.00 | 0.00 | 13 | 1004.7 |
| 20260503224629 | 95 | 200 | 4.0 | 15.0 | 0.00 | 0.00 | 0.00 | 13 | 1004.9 |
| 20260503224129 | 95 | 191 | 4.0 | 16.0 | 0.00 | 0.00 | 0.00 | 13 | 1004.9 |
| 20260503223629 | 95 | 122 | 3.0 | 16.0 | 0.00 | 0.00 | 0.00 | 13 | 1005.1 |
| 20260503223129 | 96 | 200 | 1.0 | 12.0 | 0.00 | 0.00 | 0.00 | 13 | 1005.2 |
| 20260503222629 | 96 | 139 | 0.0 | 5.0 | 0.00 | 0.00 | 0.00 | 13 | 1005.4 |
| 20260503222130 | 96 | 209 | 0.0 | 1.0 | 0.00 | 0.00 | 0.00 | 13 | 1005.4 |
| 20260503221630 | 95 | 196 | 0.0 | 5.0 | 0.00 | 0.00 | 0.00 | 13 | 1005.6 |
| 20260503221129 | 95 | 232 | 0.0 | 6.0 | 0.00 | 0.00 | 0.00 | 14 | 1005.8 |
| 20260503220627 | 94 | 211 | 1.0 | 13.0 | 0.00 | 0.00 | 0.00 | 14 | 1005.8 |
| 20260503220127 | 94 | 192 | 1.0 | 13.0 | 0.00 | 0.00 | 0.00 | 14 | 1005.9 |
| 20260503215625 | 94 | 197 | 1.0 | 17.0 | 0.00 | 0.00 | 0.00 | 14 | 1006.0 |
| 20260503215125 | 94 | 146 | 3.0 | 19.0 | 0.00 | 0.00 | 0.00 | 14 | 1006.1 |
| 20260503214845 | 94 | 175 | 3.0 | 19.0 | 0.00 | 0.00 | 0.00 | 14 | 1006.2 |
| 20260503214125 | 94 | 176 | 3.0 | 18.0 | 0.00 | 0.00 | 0.00 | 14 | 1006.2 |
| 20260503213626 | 94 | 139 | 3.0 | 16.0 | 0.00 | 0.00 | 0.00 | 14 | 1006.3 |
| 20260503213122 | 94 | 158 | 3.0 | 28.0 | 0.00 | 0.00 | 0.00 | 14 | 1006.4 |
| 20260503212843 | 93 | 191 | 5.0 | 28.0 | 0.00 | 0.00 | 0.00 | 15 | 1006.4 |
| 20260503212123 | 92 | 157 | 9.0 | 29.0 | 0.00 | 0.00 | 0.00 | 15 | 1006.5 |
| 20260503211623 | 93 | 104 | 10.0 | 29.0 | 0.00 | 0.00 | 0.00 | 15 | 1006.6 |
| 20260503211342 | 93 | 80 | 5.0 | 23.0 | 0.00 | 0.00 | 0.00 | 15 | 1006.6 |
| 20260503210621 | 94 | 155 | 3.0 | 21.0 | 0.00 | 0.00 | 0.00 | 15 | 1006.8 |
| 20260503210121 | 94 | 142 | 2.0 | 15.0 | 0.00 | 0.00 | 0.00 | 16 | 1006.8 |
| 20260503210104 | 94 | 158 | 2.0 | 15.0 | 0.00 | 0.00 | 0.00 | 15 | 1006.9 |
| 20260503205119 | 93 | 167 | 1.0 | 17.0 | 0.00 | 0.00 | 0.00 | 16 | 1006.9 |
| 20260503204619 | 93 | 144 | 3.0 | 17.0 | 0.00 | 0.00 | 0.00 | 16 | 1007.2 |
| 20260503204117 | 93 | 163 | 2.0 | 17.0 | 0.00 | 0.00 | 0.00 | 16 | 1007.1 |
| 20260503203616 | 93 | 195 | 2.0 | 13.0 | 0.00 | 0.00 | 0.00 | 17 | 1007.2 |
| 20260503203337 | 93 | 189 | 2.0 | 13.0 | 0.00 | 0.00 | 0.00 | 17 | 1007.2 |
| 20260503202616 | 92 | 126 | 4.0 | 17.0 | 0.00 | 0.00 | 0.00 | 17 | 1007.4 |
| 20260503202117 | 93 | 118 | 3.0 | 17.0 | 0.00 | 0.00 | 0.00 | 16 | 1007.5 |
| 20260503201617 | 93 | 207 | 1.0 | 9.0 | 0.00 | 0.00 | 0.00 | 17 | 1007.4 |
| 20260503201116 | 92 | 124 | 1.0 | 9.0 | 0.00 | 0.00 | 0.00 | 18 | 1007.5 |
| 20260503200616 | 93 | 115 | 1.0 | 18.0 | 0.00 | 0.00 | 0.00 | 18 | 1007.8 |
| 20260503200112 | 92 | 133 | 1.0 | 18.0 | 0.00 | 0.00 | 0.00 | 19 | 1007.7 |
| 20260503195613 | 93 | 238 | 0.0 | 6.0 | 0.00 | 0.00 | 0.00 | 19 | 1007.7 |
| 20260503195112 | 92 | 156 | 2.0 | 14.0 | 0.00 | 0.00 | 0.00 | 20 | 1007.8 |
| 20260503194613 | 91 | 138 | 2.0 | 14.0 | 0.00 | 0.00 | 0.00 | 19 | 1008.1 |
| 20260503194112 | 91 | 186 | 0.0 | 12.0 | 0.00 | 0.00 | 0.00 | 20 | 1008.1 |
| 20260503193840 | 91 | 217 | 1.0 | 11.0 | 0.00 | 0.00 | 0.00 | 21 | 1008.2 |
| 20260503193113 | 91 | 130 | 1.0 | 13.0 | 0.00 | 0.00 | 0.00 | 21 | 1008.4 |
| 20260503192613 | 91 | 111 | 1.0 | 13.0 | 0.00 | 0.00 | 0.00 | 20 | 1008.6 |
| 20260503192113 | 90 | 138 | 1.0 | 12.0 | 0.00 | 0.00 | 0.00 | 21 | 1008.6 |
| 20260503191608 | 90 | 144 | 2.0 | 13.0 | 0.00 | 0.00 | 0.00 | 21 | 1008.7 |
| 20260503191545 | 90 | 119 | 1.0 | 13.0 | 0.00 | 0.00 | 0.00 | 21 | 1008.8 |
| 20260503190603 | 90 | 128 | 1.0 | 9.0 | 0.00 | 0.00 | 0.00 | 21 | 1008.8 |
| 20260503190326 | 89 | 136 | 1.0 | 9.0 | 0.00 | 0.00 | 0.00 | 21 | 1008.9 |
| 20260503185601 | 89 | 155 | 3.0 | 19.0 | 0.00 | 0.00 | 0.00 | 21 | 1009.0 |
| 20260503185102 | 89 | 111 | 3.0 | 19.0 | 0.00 | 0.00 | 0.00 | 21 | 1009.1 |
| 20260503184601 | 89 | 138 | 1.0 | 14.0 | 0.00 | 0.00 | 0.00 | 21 | 1009.1 |
| 20260503184101 | 89 | 134 | 2.0 | 14.0 | 0.00 | 0.00 | 0.00 | 21 | 1009.2 |
| 20260503183602 | 89 | 146 | 3.0 | 17.0 | 0.00 | 0.00 | 0.00 | 20 | 1009.3 |
| 20260503183101 | 89 | 140 | 2.0 | 17.0 | 0.00 | 0.00 | 0.00 | 20 | 1009.3 |
| 20260503182601 | 89 | 124 | 1.0 | 14.0 | 0.00 | 0.00 | 0.00 | 20 | 1009.4 |
| 20260503182102 | 89 | 171 | 1.0 | 14.0 | 0.00 | 0.00 | 0.00 | 20 | 1009.4 |
| 20260503181602 | 88 | 147 | 2.0 | 14.0 | 0.00 | 0.00 | 0.00 | 20 | 1009.5 |
| 20260503181101 | 88 | 177 | 3.0 | 13.0 | 0.00 | 0.00 | 0.00 | 21 | 1009.6 |
| 20260503180603 | 87 | 155 | 4.0 | 16.0 | 0.00 | 0.00 | 0.00 | 21 | 1009.7 |
| 20260503180059 | 86 | 143 | 3.0 | 16.0 | 0.00 | 0.00 | 0.00 | 21 | 1009.7 |
| 20260503175553 | 86 | 137 | 4.0 | 16.0 | 0.00 | 0.00 | 0.00 | 22 | 1009.7 |
| 20260503175047 | 86 | 161 | 3.0 | 13.0 | 0.00 | 0.00 | 0.00 | 22 | 1009.8 |
| 20260503174540 | 86 | 159 | 2.0 | 13.0 | 0.00 | 0.00 | 0.00 | 24 | 1009.8 |
| 20260503174034 | 86 | 153 | 2.0 | 16.0 | 0.00 | 0.00 | 0.00 | 24 | 1009.8 |
| 20260503173530 | 86 | 138 | 2.0 | 17.0 | 0.00 | 0.00 | 0.00 | 24 | 1009.9 |
| 20260503173031 | 86 | 95 | 1.0 | 17.0 | 0.00 | 0.00 | 0.00 | 24 | 1009.8 |
| 20260503172529 | 85 | 137 | 1.0 | 9.0 | 0.00 | 0.00 | 0.00 | 24 | 1009.8 |
| 20260503172250 | 85 | 117 | 2.0 | 17.0 | 0.00 | 0.00 | 0.00 | 25 | 1009.8 |
| 20260503171529 | 85 | 218 | 4.0 | 18.0 | 0.00 | 0.00 | 0.00 | 25 | 1009.9 |
| 20260503171029 | 85 | 170 | 3.0 | 18.0 | 0.00 | 0.00 | 0.00 | 25 | 1009.8 |
| 20260503170529 | 85 | 148 | 1.0 | 14.0 | 0.00 | 0.00 | 0.00 | 25 | 1010.0 |
| 20260503170249 | 85 | 218 | 1.0 | 14.0 | 0.00 | 0.00 | 0.00 | 25 | 1010.0 |
| 20260503150529 | 81 | 48 | 3.0 | 16.0 | 0.00 | 0.00 | 0.00 | 28 | 1009.8 |
| 20260503131224 | 80 | 52 | 0.0 | 2.0 | 0.00 | 0.00 | 0.00 | 29 | 1009.2 |
| 20260503130503 | 80 | 316 | 0.0 | 5.0 | 0.00 | 0.00 | 0.00 | 28 | 1009.1 |
| 20260503130221 | 80 | 298 | 0.0 | 5.0 | 0.00 | 0.00 | 0.00 | 28 | 1009.2 |
| 20260503110503 | 81 | 98 | 1.0 | 13.0 | 0.00 | 0.00 | 0.00 | 27 | 1008.9 |
| 20260503090502 | 83 | 51 | 3.0 | 18.0 | 0.00 | 0.00 | 0.00 | 20 | 1008.8 |
| 20260503081501 | 85 | 111 | 0.0 | 8.0 | 0.00 | 0.00 | 0.00 | 18 | 1009.1 |
| 20260503081228 | 85 | 340 | 0.0 | 8.0 | 0.00 | 0.00 | 0.00 | 19 | 1009.1 |
| 20260503080501 | 85 | 335 | 0.0 | 1.0 | 0.00 | 0.00 | 0.00 | 19 | 1009.0 |
| 20260503072438 | 84 | 315 | 0.0 | 2.0 | 0.00 | 0.00 | 0.00 | 18 | 1009.3 |
| 20260503071932 | 84 | 38 | 0.0 | 2.0 | 0.00 | 0.00 | 0.00 | 18 | 1009.3 |
| 20260503071651 | 84 | 11 | 0.0 | 0.0 | 0.00 | 0.00 | 0.00 | 18 | 1009.2 |
| 20260503070928 | 84 | 355 | 0.0 | 0.0 | 0.00 | 0.00 | 0.00 | 17 | 1009.3 |
| 20260503070429 | 84 | 5 | 0.0 | 0.0 | 0.00 | 0.00 | 0.00 | 17 | 1009.3 |
| 20260503060157 | 81 | 336 | 0.0 | 0.0 | 0.00 | 0.00 | 0.00 | 19 | 1008.8 |
| 20260503054930 | 83 | 329 | 0.0 | 0.0 | 0.00 | 0.00 | 0.00 | 18 | 1008.9 |
| 20260503054650 | 84 | 331 | 0.0 | 0.0 | 0.00 | 0.00 | 0.00 | 17 | 1008.8 |
| 20260503053930 | 84 | 5 | 0.0 | 0.0 | 0.00 | 0.00 | 0.00 | 17 | 1008.8 |
| 20260503053429 | 83 | 5 | 0.0 | 0.0 | 0.00 | 0.00 | 0.00 | 17 | 1008.8 |
| 20260503052929 | 83 | 19 | 0.0 | 0.0 | 0.00 | 0.00 | 0.00 | 17 | 1008.7 |
| 20260503052429 | 83 | 336 | 0.0 | 0.0 | 0.00 | 0.00 | 0.00 | 17 | 1008.7 |
| 20260503052149 | 82 | 333 | 0.0 | 0.0 | 0.00 | 0.00 | 0.00 | 17 | 1008.8 |
| 20260503051655 | 82 | 333 | 0.0 | 0.0 | 0.00 | 0.00 | 0.00 | 18 | 1008.9 |
| 20260503050929 | 83 | 333 | 0.0 | 0.0 | 0.00 | 0.00 | 0.00 | 18 | 1008.9 |
| 20260503050652 | 83 | 333 | 0.0 | 0.0 | 0.00 | 0.00 | 0.00 | 17 | 1008.9 |
| 20260503050412 | 83 | 332 | 0.0 | 0.0 | 0.00 | 0.00 | 0.00 | 17 | 1008.8 |
| 20260503045430 | 83 | 331 | 0.0 | 0.0 | 0.00 | 0.00 | 0.00 | 17 | 1008.8 |
| 20260503045151 | 83 | 330 | 0.0 | 0.0 | 0.00 | 0.00 | 0.00 | 17 | 1008.7 |
| 20260503044430 | 83 | 325 | 0.0 | 0.0 | 0.00 | 0.00 | 0.00 | 17 | 1008.7 |
| 20260503043928 | 83 | 319 | 0.0 | 4.0 | 0.00 | 0.00 | 0.00 | 17 | 1008.7 |
| 20260503043429 | 84 | 309 | 0.0 | 4.0 | 0.00 | 0.00 | 0.00 | 17 | 1008.6 |
| 20260503042928 | 84 | 306 | 0.0 | 0.0 | 0.00 | 0.00 | 0.00 | 17 | 1008.5 |
| 20260503042430 | 84 | 306 | 0.0 | 0.0 | 0.00 | 0.00 | 0.00 | 16 | 1008.5 |
| 20260503041929 | 85 | 303 | 0.0 | 0.0 | 0.00 | 0.00 | 0.00 | 16 | 1008.4 |
| 20260503041429 | 85 | 299 | 0.0 | 0.0 | 0.00 | 0.00 | 0.00 | 16 | 1008.4 |
| 20260503040929 | 85 | 296 | 0.0 | 0.0 | 0.00 | 0.00 | 0.00 | 16 | 1008.3 |
| 20260503040431 | 85 | 296 | 0.0 | 0.0 | 0.00 | 0.00 | 0.00 | 15 | 1008.2 |
| 20260503035929 | 86 | 296 | 0.0 | 0.0 | 0.00 | 0.00 | 0.00 | 16 | 1008.2 |
| 20260503035429 | 86 | 177 | 0.0 | 0.0 | 0.00 | 0.00 | 0.00 | 15 | 1008.2 |
| 20260503035152 | 86 | 172 | 0.0 | 0.0 | 0.00 | 0.00 | 0.00 | 15 | 1008.1 |
| 20260503034430 | 86 | 173 | 0.0 | 0.0 | 0.00 | 0.00 | 0.00 | 15 | 1008.0 |
| 20260503033930 | 86 | 172 | 0.0 | 0.0 | 0.00 | 0.00 | 0.00 | 15 | 1008.0 |
| 20260503033429 | 86 | 173 | 0.0 | 0.0 | 0.00 | 0.00 | 0.00 | 15 | 1008.0 |
| 20260503032929 | 86 | 172 | 0.0 | 0.0 | 0.00 | 0.00 | 0.00 | 15 | 1008.0 |
| 20260503032429 | 86 | 173 | 0.0 | 0.0 | 0.00 | 0.00 | 0.00 | 14 | 1007.7 |
| 20260503031931 | 87 | 172 | 0.0 | 0.0 | 0.00 | 0.00 | 0.00 | 14 | 1007.7 |
| 20260503031429 | 87 | 172 | 0.0 | 0.0 | 0.00 | 0.00 | 0.00 | 14 | 1007.7 |
| 20260503030929 | 87 | 172 | 0.0 | 0.0 | 0.00 | 0.00 | 0.00 | 14 | 1007.7 |
| 20260503030429 | 87 | 173 | 0.0 | 0.0 | 0.00 | 0.00 | 0.00 | 14 | 1007.7 |
| 20260503025929 | 87 | 173 | 0.0 | 0.0 | 0.00 | 0.00 | 0.00 | 14 | 1007.8 |
| 20260503025429 | 87 | 172 | 0.0 | 0.0 | 0.00 | 0.00 | 0.00 | 14 | 1007.7 |
| 20260503024929 | 87 | 173 | 0.0 | 0.0 | 0.00 | 0.00 | 0.00 | 14 | 1007.6 |
| 20260503024652 | 87 | 178 | 0.0 | 0.0 | 0.00 | 0.00 | 0.00 | 14 | 1007.6 |
| 20260503023929 | 87 | 177 | 0.0 | 0.0 | 0.00 | 0.00 | 0.00 | 14 | 1007.6 |
| 20260503023429 | 87 | 169 | 0.0 | 0.0 | 0.00 | 0.00 | 0.00 | 14 | 1007.6 |
| 20260503023151 | 87 | 171 | 0.0 | 0.0 | 0.00 | 0.00 | 0.00 | 14 | 1007.5 |
| 20260503022429 | 88 | 171 | 0.0 | 0.0 | 0.00 | 0.00 | 0.00 | 14 | 1007.5 |
| 20260503021929 | 88 | 171 | 0.0 | 0.0 | 0.00 | 0.00 | 0.00 | 14 | 1007.5 |
| 20260503021429 | 88 | 171 | 0.0 | 0.0 | 0.00 | 0.00 | 0.00 | 14 | 1007.5 |
| 20260503020930 | 88 | 171 | 0.0 | 0.0 | 0.00 | 0.00 | 0.00 | 14 | 1007.4 |
| 20260503020646 | 88 | 171 | 0.0 | 0.0 | 0.00 | 0.00 | 0.00 | 14 | 1007.5 |
| 20260503015922 | 88 | 171 | 0.0 | 0.0 | 0.00 | 0.00 | 0.00 | 14 | 1007.5 |
| 20260503015416 | 89 | 171 | 0.0 | 0.0 | 0.00 | 0.00 | 0.00 | 14 | 1007.5 |
| 20260503014918 | 89 | 171 | 0.0 | 0.0 | 0.00 | 0.00 | 0.00 | 14 | 1007.5 |
| 20260503014416 | 89 | 190 | 0.0 | 0.0 | 0.00 | 0.00 | 0.00 | 14 | 1007.6 |
| 20260503013915 | 89 | 192 | 0.0 | 0.0 | 0.00 | 0.00 | 0.00 | 14 | 1007.6 |
| 20260503013415 | 89 | 165 | 0.0 | 1.0 | 0.00 | 0.00 | 0.00 | 14 | 1007.6 |
| 20260503012913 | 89 | 165 | 0.0 | 1.0 | 0.00 | 0.00 | 0.00 | 14 | 1007.6 |
| 20260503012411 | 89 | 180 | 0.0 | 7.0 | 0.00 | 0.00 | 0.00 | 14 | 1007.7 |
| 20260503011909 | 89 | 175 | 0.0 | 11.0 | 0.00 | 0.00 | 0.00 | 14 | 1007.7 |
| 20260503011407 | 90 | 135 | 0.0 | 11.0 | 0.00 | 0.00 | 0.00 | 14 | 1007.8 |
| 20260503010908 | 90 | 144 | 0.0 | 0.0 | 0.00 | 0.00 | 0.00 | 13 | 1007.7 |
| 20260503010407 | 90 | 164 | 0.0 | 1.0 | 0.00 | 0.00 | 0.00 | 13 | 1007.7 |
| 20260503005908 | 90 | 148 | 0.0 | 1.0 | 0.00 | 0.00 | 0.00 | 14 | 1007.8 |
| 20260503005630 | 90 | 149 | 0.0 | 1.0 | 0.00 | 0.00 | 0.00 | 14 | 1007.8 |
| 20260503004905 | 90 | 173 | 0.0 | 1.0 | 0.00 | 0.00 | 0.00 | 14 | 1007.8 |
| 20260503004403 | 90 | 188 | 0.0 | 0.0 | 0.00 | 0.00 | 0.00 | 14 | 1007.8 |
| 20260503003901 | 91 | 158 | 0.0 | 4.0 | 0.00 | 0.00 | 0.00 | 14 | 1008.0 |
| 20260503003402 | 91 | 190 | 0.0 | 4.0 | 0.00 | 0.00 | 0.00 | 14 | 1008.0 |
| 20260503003121 | 91 | 161 | 0.0 | 3.0 | 0.00 | 0.00 | 0.00 | 14 | 1008.0 |
| 20260503002402 | 91 | 175 | 0.0 | 3.0 | 0.00 | 0.00 | 0.00 | 13 | 1008.0 |
| 20260503001901 | 91 | 115 | 0.0 | 0.0 | 0.00 | 0.00 | 0.00 | 13 | 1008.1 |
| 20260503001621 | 91 | 181 | 0.0 | 0.0 | 0.00 | 0.00 | 0.00 | 13 | 1008.1 |
| 20260503001120 | 91 | 144 | 0.0 | 0.0 | 0.00 | 0.00 | 0.00 | 13 | 1008.1 |
| 20260503000613 | 91 | 155 | 0.0 | 0.0 | 0.00 | 0.00 | 0.00 | 14 | 1008.1 |
| 20260502235841 | 91 | 177 | 0.0 | 9.0 | 0.00 | 0.00 | 0.00 | 14 | 1008.1 |
| 20260502235336 | 91 | 191 | 0.0 | 9.0 | 0.00 | 0.00 | 0.00 | 14 | 1008.1 |
| 20260502234834 | 91 | 180 | 0.0 | 3.0 | 0.00 | 0.00 | 0.00 | 14 | 1008.1 |
| 20260502234333 | 91 | 167 | 0.0 | 1.0 | 0.00 | 0.00 | 0.00 | 14 | 1008.1 |
| 20260502233833 | 91 | 229 | 0.0 | 0.0 | 0.00 | 0.00 | 0.00 | 14 | 1008.0 |
| 20260502233552 | 91 | 216 | 0.0 | 1.0 | 0.00 | 0.00 | 0.00 | 15 | 1008.0 |
| 20260502233059 | 91 | 305 | 0.0 | 4.0 | 0.00 | 0.00 | 0.00 | 14 | 1008.1 |
| 20260502232332 | 91 | 188 | 1.0 | 11.0 | 0.00 | 0.00 | 0.00 | 14 | 1008.3 |
| 20260502231833 | 92 | 98 | 1.0 | 11.0 | 0.00 | 0.00 | 0.00 | 14 | 1008.2 |
| 20260502231335 | 92 | 122 | 0.0 | 4.0 | 0.00 | 0.00 | 0.00 | 14 | 1008.2 |
| 20260502230833 | 92 | 213 | 0.0 | 4.0 | 0.00 | 0.00 | 0.00 | 14 | 1008.2 |
| 20260502230556 | 91 | 42 | 0.0 | 10.0 | 0.00 | 0.00 | 0.00 | 15 | 1008.2 |
| 20260502225833 | 92 | 71 | 1.0 | 10.0 | 0.00 | 0.00 | 0.00 | 15 | 1008.3 |